Weather History for Casper, WY

Change the Weather History Date:

Friday, November 23, 2012

  Actual Average Record
Temperature  
Mean Temperature 29 °F 30 °F  
Max Temperature 49 °F 40 °F 60 °F (2006)
Min Temperature 8 °F 19 °F -21 °F (1985)
Degree Days  
Heating Degree Days 36 36  
Month to date heating degree days 588 697  
Since 1 July heating degree days 1359 1596  
Cooling Degree Days 0 0  
Month to date cooling degree days 0 0  
Year to date cooling degree days 697 422  
Moisture  
Dew Point 10 °F    
Average Humidity 48    
Maximum Humidity 76    
Minimum Humidity 19    
Precipitation  
Precipitation 0.00 in 0.02 in 0.29 in (1967)
Month to date precipitation 0.33 0.62  
Year to date precipitation 7.33 11.89  
Snow  
Snow 0.00 in 0.30 in - ()
Month to date snowfall 4.1 7.8  
Since 1 July snowfall 9.3 17.0  
Since 1 September snowfall 9.3 17.0  
Snow Depth 0.00 in    
Sea Level Pressure  
Sea Level Pressure 30.39 in    
Wind  
Wind Speed 15 mph (SW)    
Max Wind Speed 30 mph    
Max Gust Speed 36 mph    
Visibility 10 miles    
Events      
T = Trace of Precipitation, MM = Missing Value Source: NWS Daily Summary

Daily Weather History Graph

Daily Weather History Graph

Search for Another Location

Airport:

Trip Planner

Search our weather history database for the weather conditions in past years. The results will help you decide how hot, cold, wet, or windy it might be!

Date:

Astronomy

Nov. 23, 2012 Rise Set
Actual Time 7:08 AM MST 4:36 PM MST
Civil Twilight 6:37 AM MST 5:07 PM MST
Nautical Twilight 6:02 AM MST 5:42 PM MST
Astronomical Twilight 5:28 AM MST 6:15 PM MST
Moon 1:57 PM MST (11/23) 2:24 AM MST (11/23)
Length of Visible Light 10h 29m
Length of Day
9h 27m
Waxing Gibbous, 80% of the Moon is Illuminated
Nov 23
Waxing Gibbous
Nov 28
Full
Dec 6
Last Quarter
Dec 13
New
Dec 19
First Quarter

Hourly Weather History & Observations

Time (MST) Temp. Windchill Dew Point Humidity Pressure Visibility Wind Dir Wind Speed Gust Speed Precip Events Conditions
12:53 AM 18.0 °F 8.7 °F 8.1 °F 65% 30.53 in 10.0 mi WSW 6.9 mph - N/A   Clear
1:53 AM 12.9 °F 5.2 °F 5.0 °F 71% 30.57 in 10.0 mi WNW 4.6 mph - N/A   Clear
2:53 AM 10.9 °F - 5.0 °F 77% 30.57 in 10.0 mi Calm Calm - N/A   Clear
3:53 AM 15.1 °F 9.4 °F 7.0 °F 70% 30.54 in 10.0 mi SW 3.5 mph - N/A   Clear
4:53 AM 17.1 °F 3.6 °F 8.1 °F 68% 30.55 in 10.0 mi WSW 12.7 mph - N/A   Clear
5:53 AM 19.9 °F 6.2 °F 8.1 °F 60% 30.56 in 10.0 mi WSW 15.0 mph - N/A   Clear
6:53 AM 21.9 °F 11.0 °F 8.1 °F 55% 30.56 in 10.0 mi WSW 10.4 mph - N/A   Clear
7:53 AM 28.9 °F 19.2 °F 10.9 °F 47% 30.52 in 10.0 mi SW 11.5 mph - N/A   Clear
8:53 AM 35.1 °F 24.8 °F 10.0 °F 35% 30.51 in 10.0 mi SSW 17.3 mph 24.2 mph N/A   Clear
9:53 AM 36.0 °F 24.2 °F 10.0 °F 34% 30.50 in 10.0 mi SSW 24.2 mph 32.2 mph N/A   Clear
10:53 AM 41.0 °F 30.7 °F 10.9 °F 29% 30.48 in 10.0 mi SSW 25.3 mph 33.4 mph N/A   Clear
11:53 AM 43.0 °F 33.3 °F 9.0 °F 25% 30.43 in 10.0 mi SSW 25.3 mph 33.4 mph N/A   Clear
12:53 PM 46.0 °F 37.8 °F 9.0 °F 22% 30.36 in 10.0 mi SW 23.0 mph 34.5 mph N/A   Clear
1:53 PM 48.0 °F - 9.0 °F 21% 30.35 in 10.0 mi SSW 24.2 mph 29.9 mph N/A   Clear
2:53 PM 46.9 °F - 10.0 °F 22% 30.35 in 10.0 mi SW 17.3 mph 27.6 mph N/A   Clear
3:53 PM 46.9 °F - 10.0 °F 22% 30.32 in 10.0 mi SSW 11.5 mph - N/A   Clear
4:53 PM 45.0 °F 36.6 °F 10.9 °F 25% 30.29 in 10.0 mi SW 21.9 mph - N/A   Clear
5:53 PM 42.1 °F 34.2 °F 10.9 °F 28% 30.30 in 10.0 mi WSW 16.1 mph - N/A   Clear
6:53 PM 42.1 °F 36.6 °F 12.0 °F 29% 30.29 in 10.0 mi West 9.2 mph - N/A   Clear
7:53 PM 43.0 °F 37.7 °F 14.0 °F 31% 30.24 in 10.0 mi SW 9.2 mph - N/A   Clear
8:53 PM 45.0 °F 37.6 °F 14.0 °F 29% 30.19 in 10.0 mi SW 17.3 mph - N/A   Clear
9:53 PM 46.0 °F 39.3 °F 15.1 °F 29% 30.17 in 10.0 mi WSW 16.1 mph - N/A   Clear
10:53 PM 46.0 °F 37.6 °F 16.0 °F 30% 30.11 in 10.0 mi SW 24.2 mph 31.1 mph N/A   Clear
11:53 PM 46.0 °F 37.8 °F 16.0 °F 30% 30.09 in 10.0 mi SW 23.0 mph 29.9 mph N/A   Clear